Flag for China Weather past 2 weeks in Shantou, Guangdong, China

Now
79 °F

Clear.


Feels Like: 83 °F
Forecast: 75 / 92 °F
Wind: 1 mph from Southwest

Location: Shantou Airport

Current Time: Sep 5, 2015 at 2:56:44 AM

Latest Report: Sep 5, 2015 at 2:00 AM


Visibility: 4 mi

Pressure: 29.89 "Hg

Humidity: 100%

Dew point: 79 °F

Location of ShantouLocation

Historic Weather in Shantou — Graph

°F

Shantou temperature yesterday

Maximum temperature yesterday: 93 °F (at 2:00 PM)
Minimum temperature yesterday: 79 °F (at 12:00 AM)
Average temperature yesterday: 84 °F

Past Weeks' High & Low Weather Summary

 TemperatureHumidityPressure
High99 °F (Aug 21, 3:00 PM)100% (Aug 21, 6:00 AM)29.98 "Hg (Aug 21, 6:00 AM)
Low73 °F (Sep 1, 2:00 PM)36% (Aug 25, 2:00 PM)29.42 "Hg (Aug 22, 5:00 PM)
Average84 °F82%29.72 "Hg
* Reported Aug 21 1:00 AM — Sep 5 1:00 AM, Shantou, Weather by CustomWeather, © 2015

Note: Actual official high and low records may vary slightly from our data, if they occured in-between our weather recording intervals... More about our weather records

Advertising

Shantou weather history for previous 24 hours

 ConditionsComfort  
Time TempWeatherWind HumidityBarometerVisibility
1:00 AM
Sat, Sep 5
79 °FPassing clouds.No wind94%29.89 "HgN/A
12:00 AM81 °FPassing clouds.No wind94%29.92 "HgN/A
11:00 PM
Fri, Sep 4
81 °FPassing clouds.1 mph94%29.92 "HgN/A
10:00 PM82 °FPassing clouds.1 mph89%29.95 "HgN/A
9:00 PM84 °FPassing clouds.3 mph89%29.92 "HgN/A
8:00 PM84 °FPassing clouds.6 mph84%29.89 "HgN/A
7:00 PM84 °FPassing clouds.3 mph84%29.89 "HgN/A
6:00 PM86 °FPassing clouds.13 mph75%29.86 "HgN/A
5:00 PM90 °FPassing clouds.13 mph67%29.86 "HgN/A
4:00 PM91 °FPassing clouds.15 mph63%29.86 "HgN/A
3:00 PM91 °FPassing clouds.10 mph67%29.86 "HgN/A
2:00 PM93 °FPassing clouds.3 mph56%29.89 "HgN/A
1:00 PM91 °FPassing clouds.3 mph59%29.92 "HgN/A
12:00 PM90 °FPassing clouds.6 mph67%29.92 "HgN/A
11:00 AM88 °FScattered clouds.1 mph70%29.95 "HgN/A
10:00 AM88 °FScattered clouds.3 mph70%29.95 "HgN/A
9:00 AM82 °FPartly sunny.3 mph89%29.95 "HgN/A
8:00 AM82 °FPartly sunny.3 mph94%29.95 "Hg4 mi
7:00 AM81 °FFog.1 mph100%29.95 "Hg2 mi
6:00 AM79 °FFog.1 mph100%29.95 "Hg1 mi
5:00 AM79 °FFog.1 mph100%29.95 "Hg1 mi
4:00 AM79 °FFog.1 mph100%29.92 "Hg1 mi
3:00 AM79 °FFog.1 mph100%29.92 "Hg1 mi
2:00 AM79 °FFog.1 mph100%29.95 "Hg2 mi
Weather by CustomWeather, © 2015

See weather overviewHow to use our weather pages